{"data":{"norad_id":40715,"intl_designator":"2015-032A","name":"DMC3-FM1","alt_names":[],"object_type":"PAYLOAD","status":"ACTIVE","operator":null,"country":"UK","launch_date":"2015-07-10","launch_site_code":"SRILR","launch_vehicle":null,"mission":null,"orbit_class":"UNKNOWN","rcs_meters":1.5728,"size_class":null,"mass_kg":null,"dimensions":null,"purposes":["earth_obs"],"wikipedia_slug":null,"has_3d_model":false,"image_url":null,"decayed_at":null,"tle_current":{"epoch":"2026-05-25T04:07:49.788192Z","epoch_age_seconds":70557,"freshness":"FRESH","line1":"1 40715U 15032A   26145.17210403  .00000472  00000+0  60334-4 0  9996","line2":"2 40715  97.6490  11.2462 0006691 120.0486 240.1394 14.85706695586499","mean_motion":14.85706695,"eccentricity":0.0006691,"inclination_deg":97.649,"raan_deg":11.2462,"arg_perigee_deg":120.0486,"mean_anomaly_deg":240.1394,"bstar":6.0334e-5,"rev_number":58649,"period_min":96.923572118654,"perigee_km":606.69187684488,"apogee_km":616.0452331786,"semimajor_km":6989.5055550117,"source":"CELESTRAK","updated_at":"2026-05-25T13:38:13.163924Z"}}}